Tracking 19489 objects as of 23-Jan-2019
HD Live streaming from Space Station
objects crossing your sky now

FENGYUN 1C DEB

Track FENGYUN 1C DEB now!
10-day predictions


NORAD ID: 30398
Int'l Code: 1999-025ADM
Perigee: 856.2 km
Apogee: 1,117.1 km
Inclination: 99.8 °
Period: 104.7 minutes
Semi major axis: 7357 km
RCS: 0.0135 m2 (small)
Launch date: May 10, 1999
Source: People's Republic of China (PRC)
Launch site: Taiyaun Space Center, China (TSC)

Note: This is SATELLITE DEBRIS
aabbcc
Your satellite tracking list
Your tracking list is empty




NASA's NSSDC Master Catalog

Two Line Element Set (TLE):
1 30398U 99025ADM 19022.86415257  .00000259  00000-0  28409-3 0  9992
2 30398  99.7834 171.3009 0177257 330.9106 186.6585 13.75607098601694
Source of the keplerian elements: AFSPC